PRIVATE WETTERSTATION BILLIGHEIM-ALLFELD                       ZURCK
Wetterdaten: Donnerstag, 16.03.2017
Datum Zeit Temp. A. Temp. A. min Temp. A. max Feuchte A. Luftdruck Regen Wind Richtung Richtung Sonnenschein ET Solar Taupunkt Windchill Windben Empfang
16.03.2017 00:00 4,3 C 4,3 C 4,5 C 90 % 1028,8 hPa 0,0 l/m 0,0 km/h (0 Bft) NW 315 0 min 0,000 mm 0 W/m 2,8 C 4,3 C 1,6 km/h (1 Bft) 98 %
16.03.2017 00:10 3,9 C 3,9 C 4,2 C 91 % 1028,8 hPa 0,0 l/m 1,6 km/h (1 Bft) NW 315 0 min 0,000 mm 0 W/m 2,6 C 3,9 C 4,8 km/h (1 Bft) 97 %
16.03.2017 00:20 3,8 C 3,8 C 3,9 C 91 % 1028,8 hPa 0,0 l/m 0,0 km/h (0 Bft) NW 315 0 min 0,000 mm 0 W/m 2,5 C 3,8 C 3,2 km/h (1 Bft) 98 %
16.03.2017 00:30 3,6 C 3,6 C 3,7 C 91 % 1028,8 hPa 0,0 l/m 0,0 km/h (0 Bft) NW 315 0 min 0,000 mm 0 W/m 2,3 C 3,6 C 4,8 km/h (1 Bft) 98 %
16.03.2017 00:40 3,4 C 3,4 C 3,6 C 91 % 1028,7 hPa 0,0 l/m 0,0 km/h (0 Bft) N 0 0 min 0,000 mm 0 W/m 2,1 C 3,4 C 0,0 km/h (0 Bft) 97 %
16.03.2017 00:50 3,4 C 3,4 C 3,5 C 91 % 1028,6 hPa 0,0 l/m 0,0 km/h (0 Bft) N 0 0 min 0,000 mm 0 W/m 2,1 C 3,4 C 0,0 km/h (0 Bft) 98 %
16.03.2017 01:00 3,3 C 3,3 C 3,4 C 91 % 1028,6 hPa 0,0 l/m 0,0 km/h (0 Bft) NW 315 0 min 0,000 mm 0 W/m 2,0 C 3,3 C 1,6 km/h (1 Bft) 97 %
16.03.2017 01:10 3,3 C 3,3 C 3,3 C 91 % 1028,5 hPa 0,0 l/m 0,0 km/h (0 Bft) N 0 0 min 0,000 mm 0 W/m 2,0 C 3,3 C 0,0 km/h (0 Bft) 98 %
16.03.2017 01:20 3,3 C 3,3 C 3,3 C 91 % 1028,5 hPa 0,0 l/m 0,0 km/h (0 Bft) N 0 0 min 0,000 mm 0 W/m 2,0 C 3,3 C 0,0 km/h (0 Bft) 83 %
16.03.2017 01:30 3,7 C 3,3 C 3,7 C 91 % 1028,4 hPa 0,0 l/m 0,0 km/h (0 Bft) N 0 0 min 0,000 mm 0 W/m 2,4 C 3,7 C 0,0 km/h (0 Bft) 99 %
16.03.2017 01:40 3,6 C 3,6 C 3,7 C 91 % 1028,4 hPa 0,0 l/m 0,0 km/h (0 Bft) N 0 0 min 0,000 mm 0 W/m 2,3 C 3,6 C 0,0 km/h (0 Bft) 100 %
16.03.2017 01:50 3,7 C 3,6 C 3,8 C 91 % 1028,3 hPa 0,0 l/m 0,0 km/h (0 Bft) N 0 0 min 0,000 mm 0 W/m 2,4 C 3,7 C 0,0 km/h (0 Bft) 99 %
16.03.2017 02:00 3,7 C 3,7 C 3,8 C 91 % 1028,2 hPa 0,0 l/m 0,0 km/h (0 Bft) N 0 0 min 0,000 mm 0 W/m 2,4 C 3,7 C 0,0 km/h (0 Bft) 100 %
16.03.2017 02:10 3,3 C 3,3 C 3,7 C 91 % 1028,2 hPa 0,0 l/m 0,0 km/h (0 Bft) N 0 0 min 0,000 mm 0 W/m 2,0 C 3,3 C 0,0 km/h (0 Bft) 100 %
16.03.2017 02:20 3,1 C 3,1 C 3,3 C 91 % 1028,0 hPa 0,0 l/m 0,0 km/h (0 Bft) NW 315 0 min 0,000 mm 0 W/m 1,8 C 3,1 C 3,2 km/h (1 Bft) 100 %
16.03.2017 02:30 3,1 C 3,1 C 3,1 C 91 % 1028,0 hPa 0,0 l/m 0,0 km/h (0 Bft) N 0 0 min 0,000 mm 0 W/m 1,8 C 3,1 C 0,0 km/h (0 Bft) 100 %
16.03.2017 02:40 2,9 C 2,9 C 3,1 C 91 % 1027,9 hPa 0,0 l/m 0,0 km/h (0 Bft) N 0 0 min 0,000 mm 0 W/m 1,6 C 2,9 C 0,0 km/h (0 Bft) 100 %
16.03.2017 02:50 2,6 C 2,6 C 2,9 C 91 % 1027,8 hPa 0,0 l/m 0,0 km/h (0 Bft) N 0 0 min 0,000 mm 0 W/m 1,3 C 2,6 C 0,0 km/h (0 Bft) 100 %
16.03.2017 03:00 2,2 C 2,2 C 2,6 C 91 % 1027,7 hPa 0,0 l/m 0,0 km/h (0 Bft) N 0 0 min 0,000 mm 0 W/m 0,9 C 2,2 C 0,0 km/h (0 Bft) 90 %
16.03.2017 03:10 2,3 C 2,1 C 2,3 C 91 % 1027,7 hPa 0,0 l/m 0,0 km/h (0 Bft) N 0 0 min 0,000 mm 0 W/m 1,0 C 2,3 C 0,0 km/h (0 Bft) 100 %
16.03.2017 03:20 2,3 C 2,3 C 2,3 C 91 % 1027,7 hPa 0,0 l/m 0,0 km/h (0 Bft) N 0 0 min 0,000 mm 0 W/m 1,0 C 2,3 C 0,0 km/h (0 Bft) 100 %
16.03.2017 03:30 2,2 C 2,2 C 2,3 C 91 % 1027,5 hPa 0,0 l/m 0,0 km/h (0 Bft) N 0 0 min 0,000 mm 0 W/m 0,9 C 2,2 C 0,0 km/h (0 Bft) 100 %
16.03.2017 03:40 2,1 C 2,1 C 2,2 C 91 % 1027,6 hPa 0,0 l/m 0,0 km/h (0 Bft) N 0 0 min 0,000 mm 0 W/m 0,8 C 2,1 C 0,0 km/h (0 Bft) 100 %
16.03.2017 03:50 2,0 C 2,0 C 2,1 C 91 % 1027,6 hPa 0,0 l/m 0,0 km/h (0 Bft) N 0 0 min 0,000 mm 0 W/m 0,7 C 2,0 C 0,0 km/h (0 Bft) 100 %
16.03.2017 04:00 2,0 C 2,0 C 2,0 C 91 % 1027,5 hPa 0,0 l/m 0,0 km/h (0 Bft) N 0 0 min 0,000 mm 0 W/m 0,7 C 2,0 C 0,0 km/h (0 Bft) 100 %
16.03.2017 04:10 2,1 C 2,0 C 2,1 C 92 % 1027,3 hPa 0,0 l/m 0,0 km/h (0 Bft) N 0 0 min 0,000 mm 0 W/m 0,9 C 2,1 C 0,0 km/h (0 Bft) 100 %
16.03.2017 04:20 2,0 C 2,0 C 2,1 C 91 % 1027,2 hPa 0,0 l/m 0,0 km/h (0 Bft) N 0 0 min 0,000 mm 0 W/m 0,7 C 2,0 C 0,0 km/h (0 Bft) 100 %
16.03.2017 04:30 1,9 C 1,9 C 2,0 C 91 % 1027,2 hPa 0,0 l/m 0,0 km/h (0 Bft) N 0 0 min 0,000 mm 0 W/m 0,6 C 1,9 C 0,0 km/h (0 Bft) 100 %
16.03.2017 04:40 1,9 C 1,9 C 1,9 C 91 % 1027,0 hPa 0,0 l/m 0,0 km/h (0 Bft) N 0 0 min 0,000 mm 0 W/m 0,6 C 1,9 C 0,0 km/h (0 Bft) 90 %
16.03.2017 04:50 2,0 C 1,9 C 2,0 C 91 % 1026,9 hPa 0,0 l/m 0,0 km/h (0 Bft) N 0 0 min 0,000 mm 0 W/m 0,7 C 2,0 C 0,0 km/h (0 Bft) 100 %
16.03.2017 05:00 2,2 C 2,0 C 2,2 C 92 % 1026,8 hPa 0,0 l/m 0,0 km/h (0 Bft) NW 315 0 min 0,000 mm 0 W/m 1,0 C 2,2 C 3,2 km/h (1 Bft) 100 %
16.03.2017 05:10 2,2 C 2,2 C 2,3 C 92 % 1026,9 hPa 0,0 l/m 0,0 km/h (0 Bft) N 0 0 min 0,000 mm 0 W/m 1,0 C 2,2 C 0,0 km/h (0 Bft) 100 %
16.03.2017 05:20 1,9 C 1,9 C 2,2 C 91 % 1027,1 hPa 0,0 l/m 1,6 km/h (1 Bft) NW 315 0 min 0,000 mm 0 W/m 0,6 C 1,9 C 3,2 km/h (1 Bft) 100 %
16.03.2017 05:30 1,8 C 1,8 C 1,9 C 92 % 1027,1 hPa 0,0 l/m 0,0 km/h (0 Bft) NW 315 0 min 0,000 mm 0 W/m 0,6 C 1,8 C 1,6 km/h (1 Bft) 100 %
16.03.2017 05:40 1,8 C 1,8 C 1,8 C 92 % 1027,1 hPa 0,0 l/m 0,0 km/h (0 Bft) N 0 0 min 0,000 mm 0 W/m 0,6 C 1,8 C 0,0 km/h (0 Bft) 100 %
16.03.2017 05:50 2,2 C 1,8 C 2,2 C 91 % 1027,1 hPa 0,0 l/m 0,0 km/h (0 Bft) NW 315 0 min 0,000 mm 0 W/m 0,9 C 2,2 C 1,6 km/h (1 Bft) 100 %
16.03.2017 06:00 2,9 C 2,2 C 2,9 C 91 % 1027,0 hPa 0,0 l/m 1,6 km/h (1 Bft) N-NW 337 0 min 0,000 mm 0 W/m 1,6 C 2,9 C 4,8 km/h (1 Bft) 100 %
16.03.2017 06:10 2,8 C 2,8 C 3,1 C 92 % 1027,1 hPa 0,0 l/m 0,0 km/h (0 Bft) N-NW 337 0 min 0,000 mm 0 W/m 1,6 C 2,8 C 1,6 km/h (1 Bft) 100 %
16.03.2017 06:20 2,3 C 2,3 C 2,8 C 91 % 1027,0 hPa 0,0 l/m 0,0 km/h (0 Bft) N-NW 337 0 min 0,000 mm 0 W/m 1,0 C 2,3 C 1,6 km/h (1 Bft) 90 %
16.03.2017 06:30 2,1 C 2,1 C 2,3 C 91 % 1026,9 hPa 0,0 l/m 0,0 km/h (0 Bft) N 0 0 min 0,000 mm 0 W/m 0,8 C 2,1 C 0,0 km/h (0 Bft) 100 %
16.03.2017 06:40 1,9 C 1,9 C 2,1 C 91 % 1027,0 hPa 0,0 l/m 0,0 km/h (0 Bft) N 0 0 min 0,000 mm 5 W/m 0,6 C 1,9 C 0,0 km/h (0 Bft) 100 %
16.03.2017 06:50 1,8 C 1,8 C 1,9 C 92 % 1026,9 hPa 0,0 l/m 0,0 km/h (0 Bft) N 0 0 min 0,000 mm 7 W/m 0,6 C 1,8 C 0,0 km/h (0 Bft) 99 %
16.03.2017 07:00 1,8 C 1,7 C 1,8 C 92 % 1026,9 hPa 0,0 l/m 0,0 km/h (0 Bft) N 0 0 min 0,000 mm 18 W/m 0,6 C 1,8 C 0,0 km/h (0 Bft) 100 %
16.03.2017 07:10 1,7 C 1,7 C 1,8 C 92 % 1026,9 hPa 0,0 l/m 0,0 km/h (0 Bft) N 0 0 min 0,000 mm 25 W/m 0,5 C 1,7 C 0,0 km/h (0 Bft) 99 %
16.03.2017 07:20 1,7 C 1,7 C 1,7 C 91 % 1026,8 hPa 0,0 l/m 0,0 km/h (0 Bft) NO 45 0 min 0,000 mm 32 W/m 0,4 C 1,7 C 1,6 km/h (1 Bft) 100 %
16.03.2017 07:30 1,7 C 1,7 C 1,7 C 92 % 1026,9 hPa 0,0 l/m 0,0 km/h (0 Bft) N 0 0 min 0,000 mm 47 W/m 0,5 C 1,7 C 0,0 km/h (0 Bft) 100 %
16.03.2017 07:40 1,8 C 1,7 C 1,8 C 92 % 1027,0 hPa 0,0 l/m 0,0 km/h (0 Bft) N 0 0 min 0,000 mm 51 W/m 0,6 C 1,8 C 0,0 km/h (0 Bft) 100 %
16.03.2017 07:50 2,0 C 1,8 C 2,0 C 92 % 1026,9 hPa 0,0 l/m 0,0 km/h (0 Bft) N 0 0 min 0,000 mm 54 W/m 0,8 C 2,0 C 0,0 km/h (0 Bft) 100 %
16.03.2017 08:00 2,2 C 2,0 C 2,2 C 92 % 1026,9 hPa 0,0 l/m 0,0 km/h (0 Bft) N 0 0 min 0,025 mm 151 W/m 1,0 C 2,2 C 0,0 km/h (0 Bft) 100 %
16.03.2017 08:10 2,8 C 2,2 C 2,8 C 92 % 1026,9 hPa 0,0 l/m 0,0 km/h (0 Bft) N 0 10 min 0,000 mm 183 W/m 1,6 C 2,8 C 0,0 km/h (0 Bft) 100 %
16.03.2017 08:20 3,3 C 2,8 C 3,3 C 92 % 1026,8 hPa 0,0 l/m 0,0 km/h (0 Bft) N 0 10 min 0,000 mm 211 W/m 2,1 C 3,3 C 0,0 km/h (0 Bft) 100 %
16.03.2017 08:30 4,4 C 3,3 C 4,4 C 91 % 1026,7 hPa 0,0 l/m 0,0 km/h (0 Bft) N 0 10 min 0,000 mm 239 W/m 3,1 C 4,4 C 0,0 km/h (0 Bft) 100 %
16.03.2017 08:40 5,6 C 4,4 C 5,6 C 91 % 1026,8 hPa 0,0 l/m 0,0 km/h (0 Bft) N 0 10 min 0,000 mm 269 W/m 4,2 C 5,6 C 0,0 km/h (0 Bft) 100 %
16.03.2017 08:50 6,7 C 5,7 C 6,7 C 92 % 1026,8 hPa 0,0 l/m 0,0 km/h (0 Bft) N 0 10 min 0,000 mm 285 W/m 5,5 C 6,7 C 0,0 km/h (0 Bft) 100 %
16.03.2017 09:00 7,3 C 6,7 C 7,3 C 91 % 1026,8 hPa 0,0 l/m 0,0 km/h (0 Bft) N 0 10 min 0,102 mm 311 W/m 5,9 C 7,3 C 0,0 km/h (0 Bft) 100 %
16.03.2017 09:10 7,8 C 7,3 C 7,8 C 88 % 1026,6 hPa 0,0 l/m 0,0 km/h (0 Bft) N 0 10 min 0,000 mm 339 W/m 5,9 C 7,8 C 0,0 km/h (0 Bft) 100 %
16.03.2017 09:20 8,6 C 7,3 C 8,6 C 86 % 1026,6 hPa 0,0 l/m 0,0 km/h (0 Bft) S 185 10 min 0,000 mm 381 W/m 6,4 C 8,6 C 0,0 km/h (0 Bft) 97 %
16.03.2017 09:30 9,1 C 8,6 C 9,1 C 84 % 1026,5 hPa 0,0 l/m 0,0 km/h (0 Bft) S 187 10 min 0,000 mm 396 W/m 6,5 C 9,1 C 0,0 km/h (0 Bft) 97 %
16.03.2017 09:40 10,1 C 9,1 C 10,1 C 80 % 1026,5 hPa 0,0 l/m 0,0 km/h (0 Bft) S 187 10 min 0,000 mm 434 W/m 6,8 C 10,1 C 0,0 km/h (0 Bft) 97 %
16.03.2017 09:50 10,9 C 10,1 C 10,9 C 79 % 1026,4 hPa 0,0 l/m 0,0 km/h (0 Bft) S-SW 194 10 min 0,000 mm 455 W/m 7,4 C 10,9 C 0,0 km/h (0 Bft) 97 %
16.03.2017 10:00 11,7 C 10,9 C 11,7 C 79 % 1026,1 hPa 0,0 l/m 0,0 km/h (0 Bft) S-SW 194 10 min 0,178 mm 483 W/m 8,2 C 11,7 C 0,0 km/h (0 Bft) 97 %
16.03.2017 10:10 12,6 C 11,7 C 12,6 C 76 % 1026,1 hPa 0,0 l/m 0,0 km/h (0 Bft) S-SW 194 10 min 0,000 mm 510 W/m 8,5 C 12,6 C 0,0 km/h (0 Bft) 98 %
16.03.2017 10:20 13,4 C 12,6 C 13,4 C 72 % 1026,0 hPa 0,0 l/m 0,0 km/h (0 Bft) S-SW 209 10 min 0,000 mm 531 W/m 8,5 C 13,4 C 1,6 km/h (1 Bft) 97 %
16.03.2017 10:30 13,5 C 13,4 C 13,7 C 69 % 1025,9 hPa 0,0 l/m 0,0 km/h (0 Bft) SW 221 10 min 0,000 mm 548 W/m 7,9 C 13,5 C 1,6 km/h (1 Bft) 97 %
16.03.2017 10:40 12,8 C 12,8 C 13,5 C 73 % 1025,8 hPa 0,0 l/m 1,1 km/h (1 Bft) S-SW 213 10 min 0,000 mm 563 W/m 8,1 C 12,8 C 6,4 km/h (2 Bft) 97 %
16.03.2017 10:50 13,3 C 12,8 C 13,3 C 71 % 1025,8 hPa 0,0 l/m 1,1 km/h (1 Bft) S-SW 205 10 min 0,000 mm 582 W/m 8,2 C 13,3 C 6,4 km/h (2 Bft) 97 %
16.03.2017 11:00 13,6 C 13,3 C 13,6 C 71 % 1025,6 hPa 0,0 l/m 2,1 km/h (1 Bft) S-SW 213 10 min 0,279 mm 615 W/m 8,4 C 13,6 C 8,0 km/h (2 Bft) 98 %
16.03.2017 11:10 14,2 C 13,6 C 14,2 C 64 % 1025,6 hPa 0,0 l/m 3,7 km/h (1 Bft) S-SW 196 10 min 0,000 mm 633 W/m 7,5 C 14,2 C 14,5 km/h (3 Bft) 97 %
16.03.2017 11:20 14,6 C 14,2 C 14,7 C 66 % 1025,5 hPa 0,0 l/m 4,5 km/h (1 Bft) W-SW 252 10 min 0,000 mm 589 W/m 8,3 C 14,6 C 11,3 km/h (2 Bft) 98 %
16.03.2017 11:30 14,3 C 14,3 C 14,6 C 65 % 1025,4 hPa 0,0 l/m 1,7 km/h (1 Bft) SW 230 10 min 0,000 mm 629 W/m 7,8 C 14,3 C 9,7 km/h (2 Bft) 97 %
16.03.2017 11:40 14,4 C 14,3 C 14,5 C 64 % 1025,2 hPa 0,0 l/m 3,5 km/h (1 Bft) SW 233 10 min 0,000 mm 580 W/m 7,7 C 14,4 C 9,7 km/h (2 Bft) 97 %
16.03.2017 11:50 14,8 C 14,4 C 14,8 C 63 % 1025,2 hPa 0,0 l/m 2,3 km/h (1 Bft) W-NW 288 10 min 0,000 mm 629 W/m 7,8 C 14,8 C 9,7 km/h (2 Bft) 97 %
16.03.2017 12:00 15,1 C 14,8 C 15,1 C 59 % 1025,1 hPa 0,0 l/m 2,4 km/h (1 Bft) W-NW 298 10 min 0,330 mm 659 W/m 7,1 C 15,1 C 9,7 km/h (2 Bft) 97 %
16.03.2017 12:10 15,4 C 15,1 C 15,4 C 61 % 1025,0 hPa 0,0 l/m 1,1 km/h (1 Bft) W-NW 296 10 min 0,000 mm 647 W/m 7,9 C 15,4 C 6,4 km/h (2 Bft) 98 %
16.03.2017 12:20 15,7 C 15,4 C 15,7 C 59 % 1024,8 hPa 0,0 l/m 4,3 km/h (1 Bft) NW 306 10 min 0,000 mm 663 W/m 7,7 C 15,7 C 11,3 km/h (2 Bft) 97 %
16.03.2017 12:30 15,8 C 15,7 C 15,8 C 57 % 1024,7 hPa 0,0 l/m 0,8 km/h (0 Bft) SW 223 10 min 0,000 mm 657 W/m 7,3 C 15,8 C 9,7 km/h (2 Bft) 98 %
16.03.2017 12:40 15,6 C 15,5 C 15,8 C 58 % 1024,5 hPa 0,0 l/m 2,6 km/h (1 Bft) W-SW 254 10 min 0,000 mm 606 W/m 7,4 C 15,6 C 9,7 km/h (2 Bft) 98 %
16.03.2017 12:50 15,4 C 15,4 C 15,6 C 55 % 1024,3 hPa 0,0 l/m 0,4 km/h (0 Bft) W-SW 238 10 min 0,000 mm 494 W/m 6,4 C 15,4 C 6,4 km/h (2 Bft) 97 %
16.03.2017 13:00 15,2 C 15,2 C 15,4 C 58 % 1024,2 hPa 0,0 l/m 1,5 km/h (1 Bft) W-SW 241 10 min 0,331 mm 613 W/m 7,0 C 15,2 C 9,7 km/h (2 Bft) 97 %
16.03.2017 13:10 15,7 C 15,2 C 15,7 C 57 % 1024,1 hPa 0,0 l/m 1,1 km/h (1 Bft) W-NW 292 10 min 0,000 mm 598 W/m 7,2 C 15,7 C 6,4 km/h (2 Bft) 97 %
16.03.2017 13:20 15,9 C 15,7 C 15,9 C 56 % 1023,9 hPa 0,0 l/m 1,9 km/h (1 Bft) W-SW 250 10 min 0,000 mm 606 W/m 7,1 C 15,9 C 9,7 km/h (2 Bft) 98 %
16.03.2017 13:30 16,2 C 15,9 C 16,2 C 54 % 1023,7 hPa 0,0 l/m 2,4 km/h (1 Bft) W-SW 242 10 min 0,000 mm 592 W/m 6,9 C 16,2 C 8,0 km/h (2 Bft) 97 %
16.03.2017 13:40 16,3 C 16,2 C 16,3 C 54 % 1023,5 hPa 0,0 l/m 3,0 km/h (1 Bft) W-NW 289 10 min 0,000 mm 548 W/m 7,0 C 16,3 C 11,3 km/h (2 Bft) 98 %
16.03.2017 13:50 16,3 C 16,3 C 16,4 C 54 % 1023,4 hPa 0,0 l/m 3,0 km/h (1 Bft) W-NW 295 10 min 0,000 mm 564 W/m 7,0 C 16,3 C 9,7 km/h (2 Bft) 97 %
16.03.2017 14:00 16,5 C 16,3 C 16,5 C 54 % 1023,3 hPa 0,0 l/m 2,0 km/h (1 Bft) W 259 10 min 0,330 mm 540 W/m 7,2 C 16,5 C 9,7 km/h (2 Bft) 97 %
16.03.2017 14:10 16,8 C 16,5 C 16,8 C 53 % 1023,1 hPa 0,0 l/m 2,5 km/h (1 Bft) W 259 10 min 0,000 mm 541 W/m 7,2 C 16,8 C 8,0 km/h (2 Bft) 97 %
16.03.2017 14:20 17,1 C 16,8 C 17,1 C 51 % 1023,0 hPa 0,0 l/m 3,0 km/h (1 Bft) W-NW 301 10 min 0,000 mm 510 W/m 6,9 C 17,1 C 9,7 km/h (2 Bft) 97 %
16.03.2017 14:30 17,5 C 17,1 C 17,5 C 51 % 1022,9 hPa 0,0 l/m 0,8 km/h (0 Bft) W 265 10 min 0,000 mm 524 W/m 7,3 C 17,5 C 4,8 km/h (1 Bft) 98 %
16.03.2017 14:40 17,7 C 17,5 C 17,7 C 49 % 1022,8 hPa 0,0 l/m 2,5 km/h (1 Bft) W 268 10 min 0,000 mm 487 W/m 6,9 C 17,7 C 9,7 km/h (2 Bft) 97 %
16.03.2017 14:50 17,7 C 17,7 C 17,8 C 47 % 1022,5 hPa 0,0 l/m 4,1 km/h (1 Bft) SW 223 10 min 0,000 mm 171 W/m 6,2 C 17,7 C 11,3 km/h (2 Bft) 98 %
16.03.2017 15:00 17,4 C 17,3 C 17,7 C 48 % 1022,4 hPa 0,0 l/m 3,7 km/h (1 Bft) W-NW 289 0 min 0,254 mm 146 W/m 6,3 C 17,4 C 9,7 km/h (2 Bft) 97 %
16.03.2017 15:10 17,2 C 17,2 C 17,4 C 47 % 1022,3 hPa 0,0 l/m 2,4 km/h (1 Bft) W-SW 254 0 min 0,000 mm 98 W/m 5,8 C 17,2 C 8,0 km/h (2 Bft) 97 %
16.03.2017 15:20 17,1 C 17,1 C 17,2 C 50 % 1022,2 hPa 0,0 l/m 2,4 km/h (1 Bft) SW 234 0 min 0,000 mm 95 W/m 6,6 C 17,1 C 9,7 km/h (2 Bft) 98 %
16.03.2017 15:30 17,0 C 17,0 C 17,1 C 49 % 1022,0 hPa 0,0 l/m 0,4 km/h (0 Bft) SW 236 0 min 0,000 mm 88 W/m 6,2 C 17,0 C 8,0 km/h (2 Bft) 97 %
16.03.2017 15:40 17,0 C 16,9 C 17,0 C 48 % 1021,9 hPa 0,0 l/m 5,2 km/h (1 Bft) W-SW 251 0 min 0,000 mm 77 W/m 5,9 C 17,0 C 16,1 km/h (3 Bft) 98 %
16.03.2017 15:50 17,0 C 17,0 C 17,1 C 49 % 1021,8 hPa 0,0 l/m 3,6 km/h (1 Bft) S-SW 198 0 min 0,000 mm 70 W/m 6,2 C 17,0 C 11,3 km/h (2 Bft) 97 %
16.03.2017 16:00 16,9 C 16,9 C 17,0 C 46 % 1021,6 hPa 0,0 l/m 4,6 km/h (1 Bft) SO 131 0 min 0,076 mm 62 W/m 5,2 C 16,9 C 14,5 km/h (3 Bft) 97 %
16.03.2017 16:10 16,6 C 16,6 C 16,9 C 44 % 1021,5 hPa 0,0 l/m 2,1 km/h (1 Bft) SO 132 0 min 0,000 mm 54 W/m 4,3 C 16,6 C 14,5 km/h (3 Bft) 97 %
16.03.2017 16:20 16,3 C 16,3 C 16,6 C 43 % 1021,3 hPa 0,0 l/m 1,4 km/h (1 Bft) S 191 0 min 0,000 mm 47 W/m 3,7 C 16,3 C 8,0 km/h (2 Bft) 97 %
16.03.2017 16:30 16,3 C 16,3 C 16,4 C 37 % 1021,1 hPa 0,0 l/m 0,5 km/h (0 Bft) SO 142 0 min 0,000 mm 44 W/m 1,6 C 16,3 C 6,4 km/h (2 Bft) 98 %
16.03.2017 16:40 16,3 C 16,3 C 16,3 C 40 % 1021,0 hPa 0,0 l/m 0,2 km/h (0 Bft) S-SW 205 0 min 0,000 mm 40 W/m 2,7 C 16,3 C 4,8 km/h (1 Bft) 97 %
16.03.2017 16:50 16,3 C 16,3 C 16,4 C 38 % 1021,0 hPa 0,0 l/m 0,5 km/h (0 Bft) S-SO 149 0 min 0,000 mm 39 W/m 2,0 C 16,3 C 6,4 km/h (2 Bft) 98 %
16.03.2017 17:00 16,3 C 16,3 C 16,4 C 39 % 1020,9 hPa 0,0 l/m 0,8 km/h (0 Bft) W-SW 250 0 min 0,051 mm 35 W/m 2,3 C 16,3 C 8,0 km/h (2 Bft) 97 %
16.03.2017 17:10 16,3 C 16,3 C 16,3 C 38 % 1020,8 hPa 0,0 l/m 1,0 km/h (0 Bft) W-SW 252 0 min 0,000 mm 33 W/m 2,0 C 16,3 C 8,0 km/h (2 Bft) 98 %
16.03.2017 17:20 16,2 C 16,2 C 16,3 C 36 % 1020,7 hPa 0,0 l/m 0,7 km/h (0 Bft) W-SW 244 0 min 0,000 mm 30 W/m 1,1 C 16,2 C 4,8 km/h (1 Bft) 97 %
16.03.2017 17:30 16,0 C 16,0 C 16,2 C 37 % 1020,7 hPa 0,0 l/m 0,2 km/h (0 Bft) W-SW 243 0 min 0,000 mm 28 W/m 1,3 C 16,0 C 3,2 km/h (1 Bft) 97 %
16.03.2017 17:40 15,8 C 15,8 C 16,0 C 39 % 1020,5 hPa 0,0 l/m 0,0 km/h (0 Bft) W-SW 243 0 min 0,000 mm 26 W/m 1,9 C 15,8 C 1,6 km/h (1 Bft) 98 %
16.03.2017 17:50 15,6 C 15,6 C 15,8 C 39 % 1020,5 hPa 0,0 l/m 0,0 km/h (0 Bft) W-SW 243 0 min 0,000 mm 23 W/m 1,7 C 15,6 C 1,6 km/h (1 Bft) 97 %
16.03.2017 18:00 15,3 C 15,3 C 15,6 C 41 % 1020,4 hPa 0,0 l/m 0,0 km/h (0 Bft) W-SW 243 0 min 0,025 mm 18 W/m 2,1 C 15,3 C 0,0 km/h (0 Bft) 98 %
16.03.2017 18:10 15,1 C 15,1 C 15,3 C 43 % 1020,3 hPa 0,0 l/m 0,0 km/h (0 Bft) W-SW 243 0 min 0,000 mm 12 W/m 2,6 C 15,1 C 0,0 km/h (0 Bft) 97 %
16.03.2017 18:20 14,8 C 14,8 C 15,1 C 43 % 1020,2 hPa 0,0 l/m 0,0 km/h (0 Bft) W-SW 243 0 min 0,000 mm 9 W/m 2,3 C 14,8 C 0,0 km/h (0 Bft) 98 %
16.03.2017 18:30 14,3 C 14,3 C 14,8 C 44 % 1020,1 hPa 0,0 l/m 0,0 km/h (0 Bft) W-SW 243 0 min 0,000 mm 0 W/m 2,2 C 14,3 C 0,0 km/h (0 Bft) 98 %
16.03.2017 18:40 13,8 C 13,8 C 14,3 C 44 % 1020,2 hPa 0,0 l/m 0,0 km/h (0 Bft) W-SW 243 0 min 0,000 mm 0 W/m 1,8 C 13,8 C 0,0 km/h (0 Bft) 97 %
16.03.2017 18:50 13,4 C 13,4 C 13,8 C 44 % 1020,2 hPa 0,0 l/m 0,0 km/h (0 Bft) W-SW 243 0 min 0,000 mm 0 W/m 1,4 C 13,4 C 0,0 km/h (0 Bft) 98 %
16.03.2017 19:00 13,0 C 13,0 C 13,4 C 46 % 1020,0 hPa 0,0 l/m 0,0 km/h (0 Bft) W-SW 243 0 min 0,026 mm 0 W/m 1,7 C 13,0 C 0,0 km/h (0 Bft) 97 %
16.03.2017 19:10 12,6 C 12,6 C 13,0 C 47 % 1020,0 hPa 0,0 l/m 0,0 km/h (0 Bft) W-SW 243 0 min 0,000 mm 0 W/m 1,6 C 12,6 C 0,0 km/h (0 Bft) 97 %
16.03.2017 19:20 12,2 C 12,2 C 12,6 C 49 % 1019,9 hPa 0,0 l/m 0,0 km/h (0 Bft) W-SW 243 0 min 0,000 mm 0 W/m 1,8 C 12,2 C 0,0 km/h (0 Bft) 97 %
16.03.2017 19:30 11,7 C 11,7 C 12,2 C 49 % 1019,9 hPa 0,0 l/m 0,0 km/h (0 Bft) W-SW 243 0 min 0,000 mm 0 W/m 1,3 C 11,7 C 0,0 km/h (0 Bft) 97 %
16.03.2017 19:40 11,3 C 11,3 C 11,7 C 50 % 1019,9 hPa 0,0 l/m 0,0 km/h (0 Bft) W-SW 243 0 min 0,000 mm 0 W/m 1,3 C 11,3 C 0,0 km/h (0 Bft) 98 %
16.03.2017 19:50 10,9 C 10,9 C 11,3 C 53 % 1019,8 hPa 0,0 l/m 0,0 km/h (0 Bft) W-SW 243 0 min 0,000 mm 0 W/m 1,7 C 10,9 C 0,0 km/h (0 Bft) 97 %
16.03.2017 20:00 10,3 C 10,3 C 10,9 C 55 % 1019,8 hPa 0,0 l/m 0,0 km/h (0 Bft) W-SW 243 0 min 0,025 mm 0 W/m 1,7 C 10,3 C 1,6 km/h (1 Bft) 98 %
16.03.2017 20:10 9,8 C 9,8 C 10,3 C 59 % 1019,8 hPa 0,0 l/m 0,0 km/h (0 Bft) W-SW 243 0 min 0,000 mm 0 W/m 2,2 C 9,8 C 0,0 km/h (0 Bft) 97 %
16.03.2017 20:20 9,2 C 9,2 C 9,8 C 61 % 1019,7 hPa 0,0 l/m 0,0 km/h (0 Bft) W-SW 243 0 min 0,000 mm 0 W/m 2,1 C 9,2 C 0,0 km/h (0 Bft) 98 %
16.03.2017 20:30 8,9 C 8,9 C 9,2 C 61 % 1019,7 hPa 0,0 l/m 0,0 km/h (0 Bft) W-SW 243 0 min 0,000 mm 0 W/m 1,8 C 8,9 C 0,0 km/h (0 Bft) 97 %
16.03.2017 20:40 8,7 C 8,7 C 8,9 C 63 % 1019,7 hPa 0,0 l/m 0,0 km/h (0 Bft) W-SW 243 0 min 0,000 mm 0 W/m 2,1 C 8,7 C 0,0 km/h (0 Bft) 97 %
16.03.2017 20:50 8,4 C 8,4 C 8,7 C 64 % 1019,7 hPa 0,0 l/m 0,0 km/h (0 Bft) W-SW 243 0 min 0,000 mm 0 W/m 2,0 C 8,4 C 0,0 km/h (0 Bft) 98 %
16.03.2017 21:00 7,9 C 7,9 C 8,4 C 65 % 1019,7 hPa 0,0 l/m 0,0 km/h (0 Bft) W-SW 243 0 min 0,025 mm 0 W/m 1,7 C 7,9 C 0,0 km/h (0 Bft) 89 %
16.03.2017 21:10 7,6 C 7,6 C 7,9 C 67 % 1019,6 hPa 0,0 l/m 0,0 km/h (0 Bft) N 0 0 min 0,000 mm 0 W/m 1,9 C 7,6 C 0,0 km/h (0 Bft) 100 %
16.03.2017 21:20 7,5 C 7,4 C 7,6 C 67 % 1019,5 hPa 0,0 l/m 0,0 km/h (0 Bft) N 0 0 min 0,000 mm 0 W/m 1,8 C 7,5 C 0,0 km/h (0 Bft) 100 %
16.03.2017 21:30 7,3 C 7,3 C 7,5 C 69 % 1019,5 hPa 0,0 l/m 0,0 km/h (0 Bft) N 0 0 min 0,000 mm 0 W/m 2,0 C 7,3 C 0,0 km/h (0 Bft) 100 %
16.03.2017 21:40 6,8 C 6,8 C 7,3 C 70 % 1019,4 hPa 0,0 l/m 0,0 km/h (0 Bft) N 0 0 min 0,000 mm 0 W/m 1,7 C 6,8 C 0,0 km/h (0 Bft) 100 %
16.03.2017 21:50 6,5 C 6,5 C 6,8 C 71 % 1019,3 hPa 0,0 l/m 0,0 km/h (0 Bft) N 0 0 min 0,000 mm 0 W/m 1,6 C 6,5 C 0,0 km/h (0 Bft) 100 %
16.03.2017 22:00 6,4 C 6,4 C 6,5 C 72 % 1019,2 hPa 0,0 l/m 0,0 km/h (0 Bft) N 0 0 min 0,025 mm 0 W/m 1,7 C 6,4 C 0,0 km/h (0 Bft) 100 %
16.03.2017 22:10 6,1 C 6,1 C 6,4 C 72 % 1019,1 hPa 0,0 l/m 0,0 km/h (0 Bft) N 0 0 min 0,000 mm 0 W/m 1,4 C 6,1 C 0,0 km/h (0 Bft) 100 %
16.03.2017 22:20 5,8 C 5,8 C 6,1 C 73 % 1019,0 hPa 0,0 l/m 0,0 km/h (0 Bft) N 0 0 min 0,000 mm 0 W/m 1,3 C 5,8 C 0,0 km/h (0 Bft) 100 %
16.03.2017 22:30 5,6 C 5,6 C 5,8 C 75 % 1018,9 hPa 0,0 l/m 0,0 km/h (0 Bft) W-SW 247 0 min 0,000 mm 0 W/m 1,5 C 5,6 C 3,2 km/h (1 Bft) 100 %
16.03.2017 22:40 5,3 C 5,2 C 5,5 C 76 % 1018,8 hPa 0,0 l/m 0,0 km/h (0 Bft) W-SW 247 0 min 0,000 mm 0 W/m 1,4 C 5,3 C 4,8 km/h (1 Bft) 100 %
16.03.2017 22:50 5,1 C 5,1 C 5,2 C 77 % 1018,7 hPa 0,0 l/m 0,0 km/h (0 Bft) N 0 0 min 0,000 mm 0 W/m 1,4 C 5,1 C 0,0 km/h (0 Bft) 100 %
16.03.2017 23:00 5,0 C 5,0 C 5,1 C 78 % 1018,7 hPa 0,0 l/m 0,0 km/h (0 Bft) W-SW 247 0 min 0,025 mm 0 W/m 1,5 C 5,0 C 1,6 km/h (1 Bft) 100 %
16.03.2017 23:10 4,9 C 4,9 C 5,0 C 77 % 1018,5 hPa 0,0 l/m 0,0 km/h (0 Bft) N 0 0 min 0,000 mm 0 W/m 1,2 C 4,9 C 0,0 km/h (0 Bft) 100 %
16.03.2017 23:20 4,9 C 4,9 C 4,9 C 75 % 1018,4 hPa 0,0 l/m 0,0 km/h (0 Bft) N 0 0 min 0,000 mm 0 W/m 0,8 C 4,9 C 0,0 km/h (0 Bft) 100 %
16.03.2017 23:30 4,9 C 4,9 C 5,1 C 78 % 1018,4 hPa 0,0 l/m 0,0 km/h (0 Bft) N 0 0 min 0,000 mm 0 W/m 1,4 C 4,9 C 0,0 km/h (0 Bft) 100 %
16.03.2017 23:40 4,7 C 4,7 C 4,9 C 78 % 1018,2 hPa 0,0 l/m 0,0 km/h (0 Bft) N 0 0 min 0,000 mm 0 W/m 1,2 C 4,7 C 0,0 km/h (0 Bft) 100 %
16.03.2017 23:50 4,6 C 4,6 C 4,7 C 78 % 1018,0 hPa 0,0 l/m 0,0 km/h (0 Bft) N 0 0 min 0,000 mm 0 W/m 1,1 C 4,6 C 0,0 km/h (0 Bft) 100 %
_ Min-Zeit 07:00 07:00 07:20 17:20 23:50 - 00:00 - - - - - 07:20 07:10 00:40 01:20
Minimum _ 1,7 C 1,7 C 1,7 C 36 % 1018,0 hPa - 0,0 km/h (0 Bft) - - - - - 0,4 C 1,7 C 0,0 km/h (0 Bft) 83 %
_ Max-Zeit 14:50 14:50 14:50 04:10 00:00 00:00 15:40 - - 08:10 13:00 12:20 10:10 14:40 15:40 01:40
Maximum _ 17,8 C 17,7 C 17,8 C 92 % 1028,8 hPa 0,0 l/m 5,2 km/h
W-SW (1 Bft)
- - 10 min 0,331 mm 663 W/m 8,5 C 17,7 C 16,1 km/h
S-SW (3 Bft)
100 %
Durchschnitt _ 8,9 C 8,7 C 9,0 C 71 % 1024,1 hPa #0,0 l/m 0,7 km/h (0 Bft) W-NW - #6:50 h #2,107 mm 308 W/m 3,3 C 8,9 C 3,0 km/h (1 Bft) 98 %
PRIVATE WETTERSTATION BILLIGHEIM-ALLFELD - www.neckar-odenwald-wetter.de - Holger Sonntag